Location: Melbourne
(37.8666°S, 145.1333°E)
Time: 12:24:13
(UTC+10:00)

Hubble Space Telescope - Visible Passes

Search period start: 27 May 2017 00:00
Search period end: 06 June 2017 00:00
Orbit: 538 x 541 km, 28.5° (Epoch: 26 May)

Date Brightness Start Highest point End Pass type
(mag) Time Alt. Az. Time Alt. Az. Time Alt. Az.
03 Jun 3.6 05:44:36 10° N 05:45:47 11° NNE 05:47:00 10° NE visible
04 Jun 3.4 05:33:37 10° NNW 05:35:36 13° NNE 05:37:36 10° NE visible
05 Jun 3.2 05:23:55 13° N 05:25:26 15° NNE 05:27:53 10° NE visible
